Location: Amsterdam
(30.7274°N, 84.4357°W)
Time: 23:54:25
(UTC+00:00)

Explorer 11/Cluster Stage 4 - Pass Details

Date: 23 February 2026
Orbit: 463 x 1176 km, 28.8° (Epoch: 9 March)

Event Time Altitude Azimuth Distance (km) Brightness Sun altitude
Rises 17:50:34 0° 265° (W) 3,284 9.8 49.6°
Reaches altitude 10° 17:53:19 10° 263° (W) 2,228 9.1 49.6°
Maximum altitude 17:58:27 70° 180° (S) 664 7.9 49.6°
Drops below altitude 10° 18:02:38 10° 97° (E) 1,827 8.6 49.6°
Sets 18:04:42 0° 94° (E) 2,644 9.3 49.5°
